CW2433 Weather Reports


time (UTC)temp
C
wind
direction
speed
KPH
gust
KPH
rain 1hr
cm
rain 24hr
cm
rain mn
cm
humidity
%
barometer
mb
20260906180509 31 165 3.2 11.3 0.00 0.00 0.00 67 1014.1
20260906180010 31 204 3.2 14.5 0.00 0.00 0.00 69 1014.1
20260906175509 31 145 3.2 14.5 0.00 0.00 0.00 69 1014.2
20260906175009 31 194 3.2 14.5 0.00 0.00 0.00 71 1014.2
20260906174509 31 159 1.6 16.1 0.00 0.00 0.00 70 1014.3
20260906174009 30 146 4.8 16.1 0.00 0.00 0.00 70 1014.6
20260906173509 30 188 3.2 9.7 0.00 0.00 0.00 73 1014.6
20260906173009 30 177 4.8 9.7 0.00 0.00 0.00 75 1014.5
20260906172509 30 142 1.6 11.3 0.00 0.00 0.00 76 1014.6
20260906172009 30 105 1.6 11.3 0.00 0.00 0.00 76 1014.7
20260906171510 29 128 4.8 9.7 0.00 0.00 0.00 78 1014.8
20260906171009 29 136 3.2 9.7 0.00 0.00 0.00 78 1014.8
20260906170010 28 130 3.2 8.0 0.00 0.00 0.00 79 1015.0
20260906165510 28 153 0.0 4.8 0.00 0.00 0.00 79 1015.1
20260906165010 28 159 0.0 4.8 0.00 0.00 0.00 80 1015.2
20260906164510 28 177 0.0 4.8 0.00 0.00 0.00 81 1015.2
20260906164009 28 176 1.6 8.0 0.00 0.00 0.00 80 1015.3
20260906163510 27 182 3.2 8.0 0.00 0.00 0.00 82 1015.4
20260906163010 27 150 1.6 4.8 0.00 0.00 0.00 82 1015.4
20260906162510 27 130 1.6 4.8 0.00 0.00 0.00 82 1015.4
20260906162010 27 146 1.6 4.8 0.00 0.00 0.00 83 1015.4
20260906161509 27 144 0.0 4.8 0.00 0.00 0.00 82 1015.4
20260906161010 27 140 1.6 4.8 0.00 0.00 0.00 82 1015.4
20260906160510 27 125 1.6 4.8 0.00 0.00 0.00 82 1015.4
20260906160010 27 125 1.6 4.8 0.00 0.00 0.00 83 1015.5
20260906155510 27 30 0.0 3.2 0.00 0.00 0.00 82 1015.7
20260906155010 27 30 1.6 3.2 0.00 0.00 0.00 82 1015.9
20260906154010 27 151 0.0 4.8 0.00 0.00 0.00 83 1015.9
20260906153510 27 151 0.0 4.8 0.00 0.00 0.00 83 1015.9
20260906153010 27 132 1.6 4.8 0.00 0.00 0.00 83 1015.9
20260906152510 27 156 0.0 4.8 0.00 0.00 0.00 83 1015.5
20260906152010 27 150 1.6 8.0 0.00 0.00 0.00 83 1015.2
20260906151510 27 141 3.2 9.7 0.00 0.00 0.00 83 1015.1
20260906151010 27 127 8.0 9.7 0.00 0.00 0.00 83 1015.1
20260906150510 27 134 0.0 9.7 0.00 0.00 0.00 83 1015.1
20260906150009 27 147 1.6 11.3 0.00 0.00 0.00 83 1015.1
20260906145509 27 122 4.8 11.3 0.00 0.00 0.00 83 1015.0
20260906145009 27 110 4.8 11.3 0.00 0.00 0.00 84 1014.9
20260906144509 27 155 1.6 11.3 0.00 0.00 0.00 84 1014.8
20260906143009 26 142 3.2 19.3 0.00 0.00 0.00 84 1015.0
20260906142509 26 111 3.2 12.9 0.00 0.00 0.00 84 1015.0
20260906141509 26 119 4.8 9.7 0.00 0.00 0.00 84 1015.3
20260906140509 26 153 3.2 9.7 0.00 0.00 0.00 84 1015.4
20260906140010 26 136 4.8 11.3 0.00 0.00 0.00 85 1015.4
20260906135009 26 161 1.6 11.3 0.00 0.00 0.00 85 1015.3
20260906134509 26 134 4.8 14.5 0.00 0.00 0.00 85 1015.3
20260906134009 26 130 3.2 14.5 0.00 0.00 0.00 85 1015.3
20260906133509 26 169 3.2 16.1 0.00 0.00 0.00 86 1015.3
20260906133009 26 150 3.2 16.1 0.00 0.00 0.00 86 1015.3
20260906132509 26 118 3.2 19.3 0.00 0.00 0.00 86 1015.2
20260906132009 26 107 8.0 19.3 0.00 0.00 0.00 86 1015.3
20260906131510 26 154 4.8 11.3 0.00 0.00 0.00 86 1015.2
20260906131009 26 140 3.2 9.7 0.00 0.00 0.00 86 1015.3
20260906130509 26 142 3.2 8.0 0.00 0.00 0.00 86 1015.3
20260906130010 26 138 0.0 9.7 0.00 0.00 0.00 86 1015.2
20260906125509 26 153 3.2 9.7 0.00 0.00 0.00 87 1015.1
20260906125009 25 154 3.2 8.0 0.00 0.00 0.00 87 1015.0
20260906124510 25 149 3.2 9.7 0.00 0.00 0.00 87 1014.9
20260906124010 25 309 1.6 9.7 0.00 0.00 0.00 87 1014.8
20260906123509 25 165 1.6 11.3 0.00 0.00 0.00 87 1014.8
20260906123010 25 188 3.2 11.3 0.00 0.00 0.00 87 1014.7
20260906122509 25 144 1.6 8.0 0.00 0.00 0.00 87 1014.7
20260906121510 25 136 4.8 9.7 0.00 0.00 0.00 87 1014.6
20260906121010 25 144 3.2 4.8 0.00 0.00 0.00 87 1014.6
20260906120509 25 143 3.2 4.8 0.00 0.00 0.00 87 1014.5
20260906120009 25 144 1.6 8.0 0.00 0.00 0.00 87 1014.3
20260906114510 25 151 1.6 9.7 0.00 0.00 0.00 87 1014.2
20260906114010 25 142 3.2 9.7 0.00 0.00 0.00 87 1014.2
20260906113010 25 138 1.6 9.7 0.00 0.00 0.00 87 1014.0
20260906112010 25 132 1.6 4.8 0.00 0.00 0.00 87 1014.2
20260906111510 25 153 1.6 4.8 0.00 0.00 0.00 87 1014.2
20260906111010 25 209 1.6 4.8 0.00 0.00 0.00 87 1014.2
20260906110510 25 148 1.6 4.8 0.00 0.00 0.00 87 1014.2
20260906105509 25 178 1.6 4.8 0.00 0.00 0.00 87 1014.1
20260906105010 25 148 1.6 4.8 0.00 0.00 0.00 87 1014.0
20260906104510 25 189 0.0 8.0 0.00 0.00 0.00 87 1013.9
20260906104010 25 189 1.6 8.0 0.00 0.00 0.00 87 1013.9
20260906103510 25 127 1.6 8.0 0.00 0.00 0.00 86 1013.8
20260906103010 25 144 0.0 4.8 0.00 0.00 0.00 86 1013.7
20260906102509 25 151 1.6 4.8 0.00 0.00 0.00 86 1013.7
20260906102009 25 140 1.6 4.8 0.00 0.00 0.00 86 1013.7
20260906101509 25 148 1.6 1.6 0.00 0.00 0.00 86 1013.7
20260906101009 25 141 0.0 4.8 0.00 0.00 0.00 86 1013.6
20260906100509 25 141 0.0 4.8 0.00 0.00 0.00 85 1013.6
20260906100009 25 142 1.6 4.8 0.00 0.00 0.00 85 1013.6
20260906095508 25 156 0.0 3.2 0.00 0.00 0.00 85 1013.6
20260906095009 25 156 0.0 3.2 0.00 0.00 0.00 85 1013.6
20260906094508 25 156 1.6 1.6 0.00 0.00 0.00 85 1013.7
20260906093508 26 156 0.0 3.2 0.00 0.00 0.00 85 1013.7
20260906093009 26 156 0.0 3.2 0.00 0.00 0.00 84 1013.7
20260906092508 26 159 0.0 1.6 0.00 0.00 0.00 84 1013.7
20260906091510 26 159 1.6 1.6 0.00 0.00 0.00 83 1013.7
20260906090508 26 159 0.0 1.6 0.00 0.00 0.00 83 1013.7
20260906090009 26 159 0.0 4.8 0.00 0.00 0.00 83 1013.7
20260906085508 26 159 0.0 4.8 0.00 0.00 0.00 83 1013.7
20260906085009 26 159 0.0 4.8 0.00 0.00 0.00 83 1013.7
20260906084509 26 159 0.0 1.6 0.00 0.00 0.00 83 1013.6
20260906084009 26 159 0.0 3.2 0.00 0.00 0.00 83 1013.6
20260906083509 26 159 0.0 3.2 0.00 0.00 0.00 83 1013.5
20260906083009 26 159 1.6 3.2 0.00 0.00 0.00 83 1013.5
20260906082509 26 196 1.6 3.2 0.00 0.00 0.00 83 1013.5
20260906082009 26 159 0.0 4.8 0.00 0.00 0.00 83 1013.6
20260906081509 26 165 1.6 4.8 0.00 0.00 0.00 83 1013.6
20260906081010 26 142 1.6 4.8 0.00 0.00 0.00 83 1013.6
20260906080509 26 160 0.0 4.8 0.00 0.00 0.00 83 1013.6
20260906080010 26 158 1.6 8.0 0.00 0.00 0.00 83 1013.5
20260906075509 26 132 3.2 8.0 0.00 0.00 0.00 83 1013.3
20260906075009 27 146 1.6 4.8 0.00 0.00 0.00 83 1013.2
20260906074512 27 150 1.6 4.8 0.00 0.00 0.00 82 1013.2
20260906074010 27 144 1.6 4.8 0.00 0.00 0.00 82 1013.2
20260906073510 27 129 3.2 4.8 0.00 0.00 0.00 82 1013.2
20260906073010 27 146 3.2 9.7 0.00 0.00 0.00 82 1013.2
20260906072509 27 144 3.2 9.7 0.00 0.00 0.00 82 1013.3
20260906072009 27 123 3.2 9.7 0.00 0.00 0.00 82 1013.3
20260906071510 27 146 3.2 9.7 0.00 0.00 0.00 82 1013.4
20260906071010 27 138 1.6 4.8 0.00 0.00 0.00 82 1013.6
20260906070510 27 119 1.6 9.7 0.00 0.00 0.00 82 1013.6
20260906070010 27 140 3.2 9.7 0.00 0.00 0.00 82 1013.6
20260906065510 27 152 1.6 8.0 0.00 0.00 0.00 82 1013.6
20260906065010 27 105 3.2 9.7 0.00 0.00 0.00 82 1013.6
20260906063510 27 137 1.6 4.8 0.00 0.00 0.00 82 1013.6
20260906063010 27 162 3.2 4.8 0.00 0.00 0.00 81 1013.7
20260906062510 27 159 1.6 3.2 0.00 0.00 0.00 81 1013.7
20260906061509 27 148 1.6 8.0 0.00 0.00 0.00 81 1013.6
20260906061010 27 122 1.6 8.0 0.00 0.00 0.00 81 1013.7
20260906060510 27 152 3.2 8.0 0.00 0.00 0.00 81 1013.7
20260906060010 27 151 3.2 4.8 0.00 0.00 0.00 81 1013.6
20260906055510 27 136 1.6 4.8 0.00 0.00 0.00 81 1013.6
20260906055010 27 157 1.6 4.8 0.00 0.00 0.00 81 1013.6
20260906054510 27 120 1.6 9.7 0.00 0.00 0.00 81 1013.6
20260906054010 27 111 3.2 9.7 0.00 0.00 0.00 81 1013.6
20260906053509 27 155 1.6 8.0 0.00 0.00 0.00 81 1013.6
20260906052509 27 145 1.6 11.3 0.00 0.00 0.00 81 1013.6
20260906052009 27 125 3.2 11.3 0.00 0.00 0.00 81 1013.6
20260906051508 27 125 1.6 8.0 0.00 0.00 0.00 81 1013.6
20260906051009 27 130 1.6 4.8 0.00 0.00 0.00 81 1013.7
20260906050009 27 126 0.0 9.7 0.00 0.00 0.00 81 1013.8
20260906045511 27 126 0.0 9.7 0.00 0.00 0.00 81 1013.8
20260906045009 27 44 0.0 1.6 0.00 0.00 0.00 80 1013.8
20260906044509 27 44 0.0 1.6 0.00 0.00 0.00 80 1013.8
20260906044009 28 44 0.0 3.2 0.00 0.00 0.00 80 1013.8
20260906043509 28 42 0.0 3.2 0.00 0.00 0.00 80 1013.8
20260906043009 28 186 0.0 3.2 0.00 0.00 0.00 80 1013.8
20260906042508 28 189 0.0 1.6 0.00 0.00 0.00 80 1013.8
20260906042009 28 189 0.0 1.6 0.00 0.00 0.00 79 1013.9
20260906041509 28 230 0.0 1.6 0.00 0.00 0.00 79 1013.8
20260906040509 28 90 0.0 3.2 0.00 0.00 0.00 79 1013.8
20260906040009 28 91 0.0 3.2 0.00 0.00 0.00 79 1013.8
20260906035508 28 294 0.0 3.2 0.00 0.00 0.00 79 1013.7
20260906035009 28 273 0.0 1.6 0.00 0.00 0.00 78 1013.8
20260906034509 28 284 0.0 1.6 0.00 0.00 0.00 78 1013.7
20260906034009 28 286 0.0 3.2 0.00 0.00 0.00 78 1013.6
20260906033509 28 288 0.0 3.2 0.00 0.00 0.00 78 1013.6
20260906033010 28 289 0.0 3.2 0.00 0.00 0.00 77 1013.6
20260906032509 28 138 0.0 4.8 0.00 0.00 0.00 77 1013.6
20260906032009 28 139 0.0 4.8 0.00 0.00 0.00 77 1013.6
20260906030509 29 163 0.0 4.8 0.00 0.00 0.00 77 1013.1
20260906030009 29 74 1.6 4.8 0.00 0.00 0.00 77 1013.1
20260906025508 29 178 1.6 3.2 0.00 0.00 0.00 77 1013.1
20260906025009 29 182 0.0 3.2 0.00 0.00 0.00 77 1013.0
20260906024509 29 171 0.0 3.2 0.00 0.00 0.00 77 1012.9
20260906024009 29 71 0.0 4.8 0.00 0.00 0.00 76 1012.7
20260906023509 29 71 0.0 4.8 0.00 0.00 0.00 76 1012.7
20260906022510 30 175 1.6 4.8 0.00 0.00 0.00 76 1012.6
20260906022009 30 130 0.0 4.8 0.00 0.00 0.00 76 1012.6
20260906021510 30 126 1.6 4.8 0.00 0.00 0.00 75 1012.5
20260906020509 30 65 1.6 8.0 0.00 0.00 0.00 74 1012.4
20260906020009 30 71 3.2 8.0 0.00 0.00 0.00 74 1012.5
20260906015509 30 88 3.2 4.8 0.00 0.00 0.00 74 1012.2
20260906015009 30 77 1.6 4.8 0.00 0.00 0.00 73 1012.2
20260906014510 30 73 0.0 4.8 0.00 0.00 0.00 72 1012.2
20260906014010 31 74 1.6 4.8 0.00 0.00 0.00 72 1012.1
20260906013509 31 73 1.6 9.7 0.00 0.00 0.00 72 1012.1
20260906013010 31 178 0.0 9.7 0.00 0.00 0.00 71 1012.1
20260906012510 31 145 0.0 3.2 0.00 0.00 0.00 71 1012.0
20260906012010 31 72 1.6 4.8 0.00 0.00 0.00 70 1011.9
20260906011509 31 72 1.6 4.8 0.00 0.00 0.00 70 1012.0
20260906011010 31 67 1.6 4.8 0.00 0.00 0.00 69 1011.9
20260906010510 31 55 1.6 3.2 0.00 0.00 0.00 68 1011.8
20260906010010 31 138 0.0 3.2 0.00 0.00 0.00 68 1011.8
20260906005509 32 138 0.0 8.0 0.00 0.00 0.00 68 1011.7
20260906005010 32 137 3.2 8.0 0.00 0.00 0.00 68 1011.7
20260906004510 32 144 0.0 4.8 0.00 0.00 0.00 67 1011.7
20260906004010 32 112 1.6 4.8 0.00 0.00 0.00 67 1011.7
20260906003510 32 112 0.0 4.8 0.00 0.00 0.00 66 1011.7
20260906003010 32 130 1.6 4.8 0.00 0.00 0.00 66 1011.7
20260906001510 32 119 1.6 8.0 0.00 0.00 0.00 65 1011.5
20260906001009 32 130 3.2 4.8 0.00 0.00 0.00 65 1011.5
20260905235508 32 134 4.8 16.1 0.00 0.00 0.00 64 1011.5
20260905235009 32 35 4.8 16.1 0.00 0.00 0.00 64 1011.5
20260905234509 32 129 4.8 14.5 0.00 0.00 0.00 64 1011.5
20260905233509 32 143 4.8 14.5 0.00 0.00 0.00 64 1011.5
20260905233009 33 146 4.8 14.5 0.00 0.00 0.00 64 1011.4
20260905232509 33 129 1.6 11.3 0.00 0.00 0.00 64 1011.5
20260905232009 33 136 3.2 11.3 0.00 0.00 0.00 63 1011.5
20260905231509 33 162 3.2 9.7 0.00 0.00 0.00 62 1011.5
20260905231009 33 137 3.2 9.7 0.00 0.00 0.00 63 1011.5
20260905230509 33 109 4.8 9.7 0.00 0.00 0.00 62 1011.5
20260905225009 33 162 3.2 9.7 0.00 0.00 0.00 62 1011.4
20260905224509 33 120 3.2 9.7 0.00 0.00 0.00 62 1011.4
20260905224010 33 95 1.6 11.3 0.00 0.00 0.00 63 1011.3
20260905223509 33 102 1.6 14.5 0.00 0.00 0.00 62 1011.1
20260905223009 33 152 6.4 16.1 0.00 0.00 0.00 62 1011.0
20260905220510 33 115 3.2 20.9 0.00 0.00 0.00 62 1010.9
20260905220009 33 142 8.0 20.9 0.00 0.00 0.00 61 1010.9
20260905215510 33 185 6.4 19.3 0.00 0.00 0.00 61 1011.0
20260905215009 33 205 8.0 16.1 0.00 0.00 0.00 61 1011.0
20260905214510 33 156 6.4 19.3 0.00 0.00 0.00 60 1011.0
20260905213509 33 160 6.4 19.3 0.00 0.00 0.00 61 1011.3
20260905213010 33 141 4.8 16.1 0.00 0.00 0.00 61 1011.4
20260905212510 33 154 8.0 19.3 0.00 0.00 0.00 60 1011.4
20260905212010 33 170 3.2 20.9 0.00 0.00 0.00 61 1011.5
20260905211510 33 143 9.7 20.9 0.00 0.00 0.00 60 1011.5
20260905211010 32 173 3.2 19.3 0.00 0.00 0.00 60 1011.5
20260905210510 32 138 1.6 19.3 0.00 0.00 0.00 60 1011.7
20260905210010 32 152 8.0 19.3 0.00 0.00 0.00 60 1011.7
20260905205510 32 72 4.8 19.3 0.00 0.00 0.00 60 1012.0
20260905205010 32 142 3.2 19.3 0.00 0.00 0.00 61 1012.1
20260905204510 32 138 6.4 19.3 0.00 0.00 0.00 61 1012.2
20260905204010 32 76 4.8 14.5 0.00 0.00 0.00 60 1012.5
20260905203510 32 78 3.2 11.3 0.00 0.00 0.00 60 1012.7
20260905203010 32 113 4.8 16.1 0.00 0.00 0.00 60 1012.7
20260905202010 32 132 4.8 16.1 0.00 0.00 0.00 60 1012.9
20260905201010 32 136 3.2 16.1 0.00 0.00 0.00 59 1013.2
20260905200010 32 86 6.4 19.3 0.00 0.00 0.00 59 1013.5
20260905195510 32 123 4.8 16.1 0.00 0.00 0.00 60 1013.6
20260905195010 32 70 4.8 14.5 0.00 0.00 0.00 59 1013.7
20260905194510 32 213 4.8 16.1 0.00 0.00 0.00 59 1013.7
20260905194010 32 59 4.8 16.1 0.00 0.00 0.00 58 1013.7
20260905193510 32 11 8.0 16.1 0.00 0.00 0.00 57 1013.8
20260905193010 31 52 3.2 22.5 0.00 0.00 0.00 59 1013.8
20260905192509 31 96 4.8 22.5 0.00 0.00 0.00 59 1014.0
20260905192009 31 134 6.4 19.3 0.00 0.00 0.00 59 1014.1
20260905191509 31 132 3.2 16.1 0.00 0.00 0.00 60 1014.1
20260905190509 31 136 6.4 19.3 0.00 0.00 0.00 61 1014.3
20260905185509 31 93 3.2 19.3 0.00 0.00 0.00 62 1014.6
20260905185009 31 24 9.7 20.9 0.00 0.00 0.00 61 1014.7
20260905184509 31 38 8.0 20.9 0.00 0.00 0.00 63 1014.8
20260905184009 31 350 8.0 20.9 0.00 0.00 0.00 63 1014.9
20260905183509 31 53 6.4 20.9 0.00 0.00 0.00 64 1015.1
20260905183009 31 71 8.0 24.1 0.00 0.00 0.00 63 1015.2
20260905182009 31 265 8.0 19.3 0.00 0.00 0.00 64 1015.2
20260905181509 31 41 8.0 19.3 0.00 0.00 0.00 64 1015.2